Aérodrome :
LOGIN :

S'inscrire | Disclaimer

   EN    FR    IT 

 










Légende :    VFR   VFR Marginal   IFR   IFR Intensif   IFR Très Intensif
Visi : 
Plafond : 
>= 8 km
>= 3000ft
5 à 8 km
1000 à 3000 ft
1500m à 5 km
500 à 1000 ft
800 à 1500m
200 à 500 ft
< 800m
< 200 ft
Symboles :   Orages  Brouillard  Fortes neiges  Fortes précipitations  Vent > 20 kt
SIGMETs :   Divers  Orages  Givrage  Turbulence  Onde Orograph.  Cendres Volcan.







- Altitude de l'aérodrome : 779 ft
- Code IATA : CMF
- Voir les cartes d'approche


LFLB - Chambery / Aix-Les-Bains

DERNIER METAR :
  • 200100Z AUTO 16002KT 8000 BKN084 OVC100 00/M01 Q1014

METARs EXPIRÉS :
  • 200030Z AUTO 00000KT 8000 OVC090 00/M01 Q1014
  • 200000Z AUTO 13001KT 9000 NSC 00/M01 Q1014
  • 192330Z AUTO 00000KT 8000 NSC 00/M01 Q1015
  • 192300Z AUTO 00000KT 9000 NSC M00/M01 Q1015
  • 192230Z AUTO 14002KT 9000 NSC M00/M01 Q1015

TAF TAF LFLB
Valide du 19 à 18h jusqu'au 20 à 18h UTC


191700Z 1918/2018 16008KT CAVOK
BECMG 2006/2008 36010KT
Pas de NOTAMs connus pour ce terrain.



MET'MAP, la Météo Aéronautique d'un coup d'oeil ! - Copyright ORBIFLY Décembre 2007 - Disclaimer

ORBIFLY MET'MAP TEAM :

Programmation & Développement : Alexandra Zaïnal
Conception & Développement : Baudouin d'Aumeries
Co-Programmation & Développement : Marc-Olivier Méhu
Soutien technique & logistique : Manuel Goepfert

Contact : metmap@orbifly.com




SOURCES & CREDITS :

   NOAA